| time (UTC) | temp C | wind direction | speed KPH | gust KPH | rain 1hr cm | rain 24hr cm | rain mn cm | humidity % | barometer mb |
| 20260506032703 | 12 | 308 | 8.0 | 12.9 | 0.00 | 0.00 | 0.00 | 81 | 1016.6 |
| 20260506031803 | 12 | 316 | 6.4 | 11.3 | 0.00 | 0.00 | 0.00 | 82 | 1016.5 |
| 20260506030904 | 12 | 315 | 8.0 | 14.5 | 0.00 | 0.00 | 0.00 | 82 | 1016.4 |
| 20260506030003 | 12 | 340 | 3.2 | 11.3 | 0.00 | 0.00 | 0.00 | 82 | 1016.1 |
| 20260506025424 | 12 | 335 | 3.2 | 11.3 | 0.00 | 0.00 | 0.00 | 82 | 1016.3 |
| 20260506024503 | 12 | 312 | 6.4 | 16.1 | 0.00 | 0.00 | 0.00 | 82 | 1016.2 |
| 20260506023603 | 12 | 310 | 11.3 | 17.7 | 0.00 | 0.00 | 0.00 | 82 | 1015.9 |
| 20260506022703 | 12 | 312 | 9.7 | 17.7 | 0.00 | 0.00 | 0.00 | 82 | 1015.7 |
| 20260506021824 | 12 | 317 | 9.7 | 14.5 | 0.00 | 0.00 | 0.00 | 82 | 1015.6 |
| 20260506020903 | 12 | 306 | 8.0 | 14.5 | 0.00 | 0.00 | 0.00 | 82 | 1015.4 |
| 20260506020003 | 12 | 307 | 9.7 | 16.1 | 0.00 | 0.00 | 0.00 | 81 | 1015.3 |
| 20260506015404 | 12 | 307 | 9.7 | 16.1 | 0.00 | 0.00 | 0.00 | 81 | 1015.2 |
| 20260506014504 | 12 | 308 | 11.3 | 17.7 | 0.00 | 0.00 | 0.00 | 81 | 1015.2 |
| 20260506013603 | 12 | 310 | 11.3 | 17.7 | 0.00 | 0.00 | 0.00 | 81 | 1015.1 |
| 20260506012703 | 12 | 305 | 9.7 | 17.7 | 0.00 | 0.00 | 0.00 | 81 | 1015.0 |
| 20260506011803 | 12 | 310 | 8.0 | 14.5 | 0.00 | 0.00 | 0.00 | 80 | 1014.8 |
| 20260506010903 | 12 | 313 | 4.8 | 9.7 | 0.00 | 0.00 | 0.00 | 80 | 1014.3 |
| 20260506010003 | 12 | 304 | 6.4 | 12.9 | 0.00 | 0.00 | 0.00 | 79 | 1014.3 |
| 20260506005406 | 12 | 297 | 6.4 | 12.9 | 0.00 | 0.00 | 0.00 | 80 | 1014.3 |
| 20260506004504 | 12 | 308 | 4.8 | 11.3 | 0.00 | 0.00 | 0.00 | 79 | 1014.2 |
| 20260506003604 | 12 | 332 | 1.6 | 6.4 | 0.00 | 0.00 | 0.00 | 79 | 1014.1 |
| 20260506002704 | 12 | 319 | 4.8 | 11.3 | 0.00 | 0.00 | 0.00 | 79 | 1014.3 |
| 20260506001804 | 12 | 303 | 6.4 | 11.3 | 0.00 | 0.00 | 0.00 | 79 | 1014.2 |
| 20260506000904 | 12 | 306 | 8.0 | 14.5 | 0.00 | 0.00 | 0.00 | 79 | 1014.3 |
| 20260506000001 | 12 | 297 | 6.4 | 12.9 | 0.00 | 0.00 | 0.00 | 80 | 1014.6 |
| 20260505235401 | 12 | 299 | 8.0 | 16.1 | 0.00 | 0.00 | 0.00 | 80 | 1014.2 |
| 20260505234501 | 12 | 303 | 9.7 | 14.5 | 0.00 | 0.00 | 0.00 | 81 | 1014.1 |
| 20260505233622 | 12 | 307 | 9.7 | 17.7 | 0.00 | 0.00 | 0.00 | 81 | 1013.9 |
| 20260505232701 | 12 | 313 | 8.0 | 14.5 | 0.00 | 0.00 | 0.00 | 81 | 1013.8 |
| 20260505231801 | 12 | 334 | 6.4 | 16.1 | 0.00 | 0.00 | 0.00 | 80 | 1013.9 |
| 20260505230902 | 13 | 323 | 6.4 | 16.1 | 0.00 | 0.00 | 0.00 | 79 | 1013.7 |
| 20260505230001 | 13 | 323 | 6.4 | 22.5 | 0.00 | 0.00 | 0.00 | 79 | 1013.8 |
| 20260505225422 | 13 | 320 | 8.0 | 25.7 | 0.00 | 0.00 | 0.00 | 79 | 1013.9 |
| 20260505224501 | 13 | 338 | 9.7 | 25.7 | 0.00 | 0.00 | 0.00 | 79 | 1013.8 |
| 20260505223602 | 13 | 326 | 9.7 | 29.0 | 0.00 | 0.00 | 0.00 | 79 | 1014.1 |
| 20260505222701 | 13 | 324 | 12.9 | 30.6 | 0.00 | 0.00 | 0.00 | 80 | 1014.0 |
| 20260505221802 | 13 | 349 | 9.7 | 24.1 | 0.00 | 0.00 | 0.00 | 80 | 1013.9 |
| 20260505220902 | 13 | 343 | 11.3 | 27.4 | 0.00 | 0.00 | 0.00 | 79 | 1014.0 |
| 20260505220022 | 12 | 347 | 14.5 | 38.6 | 0.00 | 0.00 | 0.00 | 79 | 1013.9 |
| 20260505215401 | 13 | 346 | 12.9 | 40.2 | 0.00 | 0.00 | 0.00 | 79 | 1013.7 |
| 20260505214501 | 12 | 310 | 19.3 | 40.2 | 0.00 | 0.00 | 0.00 | 80 | 1013.8 |
| 20260505213602 | 13 | 318 | 17.7 | 37.0 | 0.00 | 0.00 | 0.00 | 80 | 1014.0 |
| 20260505212702 | 13 | 327 | 19.3 | 37.0 | 0.00 | 0.00 | 0.00 | 80 | 1013.7 |
| 20260505211802 | 13 | 316 | 19.3 | 35.4 | 0.00 | 0.00 | 0.00 | 80 | 1013.7 |
| 20260505210902 | 13 | 316 | 14.5 | 29.0 | 0.00 | 0.00 | 0.00 | 79 | 1013.7 |
| 20260505210003 | 14 | 315 | 16.1 | 35.4 | 0.00 | 0.00 | 0.00 | 78 | 1013.3 |
| 20260505205423 | 14 | 314 | 17.7 | 33.8 | 0.00 | 0.00 | 0.00 | 77 | 1013.2 |
| 20260505204504 | 14 | 307 | 20.9 | 35.4 | 0.00 | 0.00 | 0.00 | 76 | 1013.0 |
| 20260505203602 | 15 | 305 | 20.9 | 41.8 | 0.00 | 0.00 | 0.00 | 70 | 1012.8 |
| 20260505202701 | 16 | 314 | 6.4 | 14.5 | 0.00 | 0.00 | 0.00 | 61 | 1012.3 |
| 20260505201802 | 17 | 319 | 3.2 | 9.7 | 0.00 | 0.00 | 0.00 | 61 | 1012.0 |
| 20260505200923 | 17 | 314 | 6.4 | 12.9 | 0.00 | 0.00 | 0.00 | 59 | 1012.0 |
| 20260505200002 | 17 | 315 | 6.4 | 11.3 | 0.00 | 0.00 | 0.00 | 58 | 1012.0 |
| 20260505195402 | 17 | 313 | 8.0 | 12.9 | 0.00 | 0.00 | 0.00 | 58 | 1012.0 |
| 20260505194502 | 17 | 314 | 6.4 | 12.9 | 0.00 | 0.00 | 0.00 | 57 | 1011.7 |
| 20260505193602 | 17 | 316 | 8.0 | 16.1 | 0.00 | 0.00 | 0.00 | 56 | 1011.6 |
| 20260505192702 | 18 | 304 | 11.3 | 22.5 | 0.00 | 0.00 | 0.00 | 54 | 1011.6 |
| 20260505191802 | 18 | 322 | 8.0 | 16.1 | 0.00 | 0.00 | 0.00 | 55 | 1011.6 |
| 20260505190902 | 18 | 338 | 6.4 | 14.5 | 0.00 | 0.00 | 0.00 | 56 | 1011.7 |
| 20260505190003 | 18 | 328 | 8.0 | 16.1 | 0.00 | 0.00 | 0.00 | 55 | 1011.6 |
| 20260505185402 | 19 | 295 | 11.3 | 17.7 | 0.00 | 0.00 | 0.00 | 51 | 1011.3 |
| 20260505184523 | 20 | 276 | 11.3 | 20.9 | 0.00 | 0.00 | 0.00 | 49 | 1011.2 |
| 20260505183602 | 20 | 277 | 11.3 | 22.5 | 0.00 | 0.00 | 0.00 | 48 | 1010.8 |
| 20260505182723 | 20 | 275 | 12.9 | 24.1 | 0.00 | 0.00 | 0.00 | 48 | 1010.7 |
| 20260505181823 | 20 | 273 | 12.9 | 24.1 | 0.00 | 0.00 | 0.00 | 47 | 1010.8 |
| 20260505180923 | 21 | 276 | 11.3 | 17.7 | 0.00 | 0.00 | 0.00 | 46 | 1010.8 |
| 20260505180025 | 21 | 272 | 8.0 | 16.1 | 0.00 | 0.00 | 0.00 | 45 | 1010.4 |
| 20260505175402 | 21 | 284 | 9.7 | 17.7 | 0.00 | 0.00 | 0.00 | 45 | 1010.6 |
| 20260505174502 | 21 | 273 | 9.7 | 17.7 | 0.00 | 0.00 | 0.00 | 44 | 1010.2 |
| 20260505173602 | 21 | 273 | 12.9 | 22.5 | 0.00 | 0.00 | 0.00 | 44 | 1010.0 |
| 20260505172702 | 21 | 264 | 11.3 | 22.5 | 0.00 | 0.00 | 0.00 | 43 | 1010.1 |
| 20260505171802 | 21 | 267 | 11.3 | 20.9 | 0.00 | 0.00 | 0.00 | 42 | 1009.7 |
| 20260505170903 | 21 | 252 | 11.3 | 22.5 | 0.00 | 0.00 | 0.00 | 42 | 1009.8 |
| 20260505170023 | 22 | 269 | 9.7 | 20.9 | 0.00 | 0.00 | 0.00 | 43 | 1009.8 |
| 20260505165402 | 22 | 259 | 11.3 | 20.9 | 0.00 | 0.00 | 0.00 | 43 | 1009.7 |
| 20260505164502 | 22 | 262 | 11.3 | 22.5 | 0.00 | 0.00 | 0.00 | 42 | 1009.6 |
| 20260505163601 | 22 | 242 | 11.3 | 20.9 | 0.00 | 0.00 | 0.00 | 41 | 1009.3 |
| 20260505162702 | 22 | 254 | 9.7 | 16.1 | 0.00 | 0.00 | 0.00 | 40 | 1009.3 |
| 20260505161802 | 22 | 262 | 9.7 | 20.9 | 0.00 | 0.00 | 0.00 | 39 | 1009.1 |
| 20260505160902 | 22 | 253 | 9.7 | 20.9 | 0.00 | 0.00 | 0.00 | 39 | 1009.2 |
| 20260505152723 | 23 | 249 | 14.5 | 27.4 | 0.00 | 0.00 | 0.00 | 37 | 1008.5 |
| 20260505151802 | 23 | 237 | 12.9 | 24.1 | 0.00 | 0.00 | 0.00 | 38 | 1008.5 |
| 20260505150902 | 23 | 243 | 14.5 | 22.5 | 0.00 | 0.00 | 0.00 | 37 | 1008.6 |
| 20260505124502 | 24 | 188 | 4.8 | 12.9 | 0.00 | 0.00 | 0.00 | 44 | 1008.8 |
| 20260505122704 | 25 | 78 | 4.8 | 11.3 | 0.00 | 0.00 | 0.00 | 45 | 1008.9 |
| 20260505121802 | 24 | 80 | 3.2 | 9.7 | 0.00 | 0.00 | 0.00 | 46 | 1009.0 |
| 20260505100002 | 23 | 284 | 8.0 | 14.5 | 0.00 | 0.00 | 0.00 | 50 | 1010.7 |
| 20260505095424 | 23 | 274 | 6.4 | 11.3 | 0.00 | 0.00 | 0.00 | 52 | 1010.7 |
| 20260505094502 | 23 | 288 | 3.2 | 11.3 | 0.00 | 0.00 | 0.00 | 51 | 1010.7 |
| 20260505093602 | 22 | 15 | 3.2 | 12.9 | 0.00 | 0.00 | 0.00 | 52 | 1010.9 |
| 20260505092703 | 22 | 285 | 4.8 | 12.9 | 0.00 | 0.00 | 0.00 | 54 | 1011.1 |
| 20260505091823 | 22 | 319 | 3.2 | 11.3 | 0.00 | 0.00 | 0.00 | 54 | 1011.0 |
| 20260505090923 | 21 | 304 | 8.0 | 14.5 | 0.00 | 0.00 | 0.00 | 59 | 1011.4 |
| 20260505090002 | 21 | 283 | 9.7 | 12.9 | 0.00 | 0.00 | 0.00 | 60 | 1011.6 |
| 20260505084502 | 21 | 268 | 9.7 | 17.7 | 0.00 | 0.00 | 0.00 | 62 | 1011.6 |
| 20260505083602 | 21 | 276 | 9.7 | 17.7 | 0.00 | 0.00 | 0.00 | 62 | 1011.5 |
| 20260505082703 | 21 | 300 | 11.3 | 17.7 | 0.00 | 0.00 | 0.00 | 64 | 1011.9 |
| 20260505081802 | 21 | 304 | 12.9 | 22.5 | 0.00 | 0.00 | 0.00 | 65 | 1011.8 |
| 20260505080903 | 21 | 306 | 9.7 | 22.5 | 0.00 | 0.00 | 0.00 | 65 | 1011.6 |
| 20260505080002 | 21 | 295 | 11.3 | 17.7 | 0.00 | 0.00 | 0.00 | 66 | 1011.8 |
| 20260505075402 | 21 | 288 | 11.3 | 17.7 | 0.00 | 0.00 | 0.00 | 66 | 1011.7 |
| 20260505074502 | 21 | 292 | 9.7 | 14.5 | 0.00 | 0.00 | 0.00 | 67 | 1011.6 |
| 20260505073623 | 20 | 308 | 8.0 | 16.1 | 0.00 | 0.00 | 0.00 | 68 | 1011.7 |
| 20260505072702 | 20 | 318 | 4.8 | 14.5 | 0.00 | 0.00 | 0.00 | 65 | 1012.0 |
| 20260505071803 | 20 | 305 | 8.0 | 14.5 | 0.00 | 0.00 | 0.00 | 69 | 1012.0 |
| 20260505070902 | 20 | 323 | 6.4 | 14.5 | 0.00 | 0.00 | 0.00 | 67 | 1011.9 |
| 20260505070024 | 19 | 330 | 6.4 | 16.1 | 0.00 | 0.00 | 0.00 | 69 | 1012.0 |
| 20260505065402 | 19 | 324 | 8.0 | 16.1 | 0.00 | 0.00 | 0.00 | 70 | 1012.1 |
| 20260505064503 | 19 | 324 | 8.0 | 14.5 | 0.00 | 0.00 | 0.00 | 72 | 1012.1 |
| 20260505063603 | 18 | 311 | 8.0 | 17.7 | 0.00 | 0.00 | 0.00 | 72 | 1012.5 |
| 20260505062702 | 18 | 312 | 9.7 | 17.7 | 0.00 | 0.00 | 0.00 | 72 | 1012.4 |
| 20260505061824 | 17 | 307 | 11.3 | 16.1 | 0.00 | 0.00 | 0.00 | 72 | 1012.2 |
| 20260505060903 | 17 | 309 | 9.7 | 17.7 | 0.00 | 0.00 | 0.00 | 73 | 1012.4 |
| 20260505060003 | 17 | 310 | 9.7 | 16.1 | 0.00 | 0.00 | 0.00 | 73 | 1012.5 |
| 20260505055403 | 17 | 304 | 9.7 | 16.1 | 0.00 | 0.00 | 0.00 | 74 | 1012.5 |
| 20260505054502 | 16 | 300 | 9.7 | 16.1 | 0.00 | 0.00 | 0.00 | 75 | 1012.4 |
| 20260505053603 | 16 | 312 | 9.7 | 17.7 | 0.00 | 0.00 | 0.00 | 76 | 1012.6 |
| 20260505052703 | 16 | 308 | 9.7 | 16.1 | 0.00 | 0.00 | 0.00 | 78 | 1012.5 |
| 20260505051803 | 15 | 308 | 12.9 | 17.7 | 0.00 | 0.00 | 0.00 | 80 | 1012.5 |
| 20260505050902 | 15 | 308 | 11.3 | 17.7 | 0.00 | 0.00 | 0.00 | 80 | 1012.7 |
| 20260505040902 | 14 | 307 | 9.7 | 16.1 | 0.00 | 0.00 | 0.00 | 82 | 1012.7 |
| 20260505040004 | 13 | 308 | 6.4 | 11.3 | 0.00 | 0.00 | 0.00 | 83 | 1012.6 |
| 20260505035402 | 13 | 312 | 6.4 | 11.3 | 0.00 | 0.00 | 0.00 | 83 | 1012.7 |
| 20260505034502 | 13 | 307 | 8.0 | 14.5 | 0.00 | 0.00 | 0.00 | 84 | 1012.7 |
| 20260505033602 | 13 | 308 | 9.7 | 14.5 | 0.00 | 0.00 | 0.00 | 85 | 1012.7 |